Temp
15 15 14 14 14 13 13 13 13 14 14 14 14 14 14 14 15 15 15 15 15 15 15 16 16 16 16 16 15 15 15 15 15 15 15 15 15 16 16 15 15 15
14 14 14 14 13 13 13 13 13 13 13 13 13 13 13 14 14 14 15 15 15 15 15 15 16 16 16 15 15 15 15 15 15 15 15 15 15 15 15 15 15 15
14 13 13 13 13 13 13 12 12 12 12 12 12 13 13 13 13 14 14 14 14 15 15 15 15 15 15 15 15 15 15 15 15 15 15 15 14 14 14 15 15 15
13 13 13 13 13 12 12 12 12 12 12 12 12 12 12 12 12 13 13 13 13 14 14 15 15 15 15 15 15 15 15 15 15 15 15 15 15 14 15 15 14 14
13 13 13 13 12 12 12 11 11 11 11 11 11 11 11 11 11 11 12 12 13 13 14 14 14 15 15 15 15 14 14 14 15 15 15 15 15 14 15 15 14 14
13 12 12 12 12 11 11 11 11 11 11 10 10 10 10 10 10 10 11 11 12 13 13 13 13 14 14 14 14 14 14 14 14 14 14 14 14 14 15 15 15 15
12 12 12 11 11 11 11 10 10 10 10 10 9 9 9 9 9 9 9 9 11 12 11 11 11 12 12 13 13 13 14 14 14 14 14 14 14 14 15 15 15 15
11 11 11 11 11 11 10 10 10 9 9 9 9 8 8 8 8 8 8 8 9 10 9 9 9 10 10 11 11 11 12 13 14 14 14 14 14 14 14 15 15 15
11 11 11 11 11 10 10 9 9 9 9 9 8 8 8 7 7 7 7 7 8 8 8 8 9 9 9 10 10 10 11 12 13 13 14 14 14 14 14 14 14 15
11 11 11 11 10 10 10 9 9 9 9 8 8 8 7 7 7 7 6 6 6 7 7 7 8 8 9 9 9 9 10 11 12 12 13 14 14 14 14 14 15 15
11 10 10 10 10 10 10 9 9 9 9 8 8 8 7 7 7 7 6 6 6 6 6 6 5 5 6 7 8 8 9 10 10 11 12 13 13 14 14 14 15 15
10 10 10 9 9 9 9 9 9 9 9 9 8 8 8 7 7 6 6 6 5 5 5 5 4 3 4 4 6 7 8 9 10 10 11 12 13 13 14 14 14 14
10 10 10 9 9 9 9 9 9 8 9 8 8 8 8 7 7 6 6 6 5 5 5 4 4 3 3 3 4 5 6 8 9 10 11 11 12 13 14 14 14 14
10 10 10 9 9 9 8 8 8 8 8 8 8 8 8 7 7 6 6 6 5 5 4 4 3 3 3 3 3 4 5 6 8 9 10 11 12 12 13 14 14 14
10 10 10 9 9 9 8 8 8 8 8 8 8 7 7 7 7 6 6 6 5 5 4 4 3 3 2 2 2 3 3 5 7 8 9 11 11 12 12 13 14 14
10 10 10 9 9 9 8 8 8 8 8 8 7 7 7 7 7 6 6 5 5 4 4 4 3 2 2 3 3 3 3 4 6 7 8 9 10 10 11 12 13 14
10 10 10 9 9 9 8 8 8 8 8 8 7 7 7 7 6 6 6 5 5 4 4 4 3 3 3 3 3 4 3 4 5 6 7 8 8 9 11 12 12 13
10 10 9 9 9 9 8 8 8 8 8 8 7 7 7 6 6 6 5 5 5 4 4 4 3 3 3 3 3 4 4 4 4 5 6 7 8 9 10 11 12 12
10 10 9 9 8 8 8 8 8 8 8 8 7 7 7 6 6 6 6 5 5 4 4 4 3 3 3 3 3 4 4 3 3 4 5 6 7 8 9 10 11 12
9 9 9 8 8 8 8 8 8 8 8 8 7 7 7 6 6 6 6 5 5 4 4 3 3 3 3 3 3 4 4 3 3 3 4 5 6 7 7 8 9 10
9 9 8 8 8 7 7 7 7 8 8 8 8 7 7 7 6 6 5 5 5 4 4 3 3 3 3 4 4 4 3 3 2 3 3 4 4 5 5 6 6 7
9 9 8 8 8 7 7 7 7 7 7 7 7 7 7 6 6 6 5 5 5 4 4 3 3 2 3 3 4 4 3 2 2 3 3 3 3 3 4 4 4 5
9 9 8 8 8 7 7 7 7 7 7 7 7 7 6 6 6 5 5 5 5 4 4 3 3 3 3 3 3 3 3 3 2 2 3 3 3 3 3 3 3 4
9 9 8 8 8 7 7 7 7 7 7 6 6 6 6 6 5 5 5 5 5 4 4 3 3 3 3 2 2 3 3 2 2 2 2 2 2 2 2 2 3 3
10 9 9 8 8 8 7 7 7 6 6 6 6 6 6 5 5 5 5 5 5 4 4 3 3 3 3 3 2 2 2 2 2 2 2 2 2 2 2 2 2 3
10 9 9 8 8 8 7 7 7 7 6 6 6 6 6 5 5 5 5 5 4 4 4 4 3 3 3 3 3 2 2 2 1 1 2 2 2 2 2 2 2 2
Height
833 833 832 832 832 831 830 829 828 827 826 824 823 822 820 818 817 816 815 814 813 812 811 810 808 805 804 804 803 801 800 800 799 799 800 799 798 797 797 796 796 796
833 833 833 832 832 831 831 830 828 827 826 825 823 821 820 818 816 815 814 813 812 811 810 809 807 805 803 802 801 800 800 799 798 797 796 796 796 797 795 794 793 793
833 833 832 832 832 831 830 830 828 827 826 824 822 821 819 817 816 814 813 812 811 810 809 808 807 805 803 801 799 798 797 797 796 795 793 792 793 794 793 792 791 790
833 833 832 832 832 831 830 829 828 827 825 824 823 821 819 817 816 814 813 811 810 809 808 807 805 803 802 800 798 797 795 794 794 792 790 788 787 787 788 789 789 788
834 833 832 832 831 830 830 828 827 826 825 824 823 821 820 818 816 815 813 811 809 808 807 806 804 802 800 799 797 795 794 792 791 790 788 785 784 783 783 784 785 785
834 833 833 832 831 830 829 828 828 827 825 824 823 821 820 818 816 815 813 811 809 808 807 805 803 800 799 797 795 793 791 790 788 787 785 783 781 781 780 779 779 780
835 834 833 833 832 831 830 829 828 827 826 825 823 822 820 818 816 814 812 811 809 808 807 805 801 798 797 795 793 791 789 787 786 784 782 780 779 778 777 776 775 775
836 835 834 833 832 831 830 829 828 827 827 825 824 822 821 819 816 814 813 811 809 809 807 804 801 798 796 794 792 790 787 785 784 782 779 777 776 775 775 774 773 771
837 836 835 833 832 831 831 830 829 828 827 826 824 823 821 819 817 815 813 811 809 808 806 803 801 798 796 794 792 789 786 784 782 780 777 775 774 772 772 771 770 768
837 836 835 834 833 832 832 831 830 829 828 827 826 824 822 821 819 817 815 812 811 809 807 804 801 798 795 793 791 789 786 783 781 778 776 774 772 770 769 768 767 765
838 837 836 835 834 834 833 832 831 830 829 828 826 825 823 822 820 818 816 814 813 810 809 806 803 800 797 793 791 788 785 783 780 777 775 772 770 768 766 765 764 762
839 838 838 837 836 835 835 834 833 831 830 829 827 826 825 823 821 820 818 817 815 812 810 807 804 802 798 794 791 787 784 782 779 776 773 770 768 766 764 763 762 760
840 840 839 839 838 837 837 835 834 833 831 830 829 827 826 824 823 822 820 818 816 814 812 809 806 802 799 795 791 787 784 780 777 774 772 769 766 763 762 760 759 758
842 842 841 840 840 839 838 837 835 834 832 831 830 829 827 826 824 823 821 820 818 815 813 810 807 803 799 795 791 787 783 779 776 773 770 767 765 762 760 758 757 756
844 844 843 842 841 839 839 838 836 835 834 833 831 830 829 827 826 824 822 820 818 816 814 812 808 805 802 798 794 788 783 778 775 772 769 766 763 761 759 757 755 754
846 845 844 843 842 840 840 838 837 836 835 834 832 831 830 829 827 825 823 821 819 817 815 813 810 807 803 799 795 790 784 779 774 771 768 765 763 761 759 756 754 752
847 846 845 844 843 842 841 840 839 837 836 835 833 832 831 830 828 826 825 823 821 818 816 814 811 808 803 798 794 790 785 779 775 771 767 765 763 761 759 756 753 751
848 847 846 846 844 843 842 841 840 838 837 836 834 833 832 831 829 827 825 824 821 819 817 814 812 808 803 798 793 789 784 780 775 772 768 765 763 761 758 755 752 750
850 849 848 847 846 845 843 842 840 839 837 836 835 834 833 832 830 828 826 825 822 820 817 815 812 808 803 798 794 789 784 780 776 773 769 766 764 761 758 755 751 748
851 850 850 849 848 846 844 843 841 840 838 837 836 835 834 832 831 829 827 826 824 821 819 816 813 809 804 800 795 790 785 781 777 774 770 767 765 762 759 755 751 748
853 852 851 851 849 847 845 844 843 841 840 839 838 836 835 834 832 830 829 827 825 823 821 818 815 811 806 801 796 791 786 782 778 775 771 768 765 762 759 756 752 748
854 853 852 852 850 849 847 845 844 843 841 840 839 838 837 835 834 833 831 829 827 824 822 819 816 812 807 803 798 793 788 784 780 777 773 770 766 763 760 756 753 749
855 854 854 853 852 850 849 848 846 845 844 843 841 840 839 837 836 835 833 831 828 826 823 820 817 814 809 805 800 795 790 786 783 779 775 772 769 765 762 758 755 751
856 855 855 854 853 852 851 850 849 848 846 845 844 842 841 840 838 836 834 832 830 827 825 822 819 815 811 807 803 798 793 789 785 781 778 775 771 767 764 760 756 753
857 856 856 855 854 853 853 852 851 850 849 847 846 844 843 841 840 837 835 833 831 829 826 823 820 817 813 809 805 801 796 792 788 784 780 777 773 769 765 761 757 753
858 857 857 856 856 855 854 853 852 851 850 848 847 846 844 843 841 839 837 834 832 830 827 825 822 818 815 811 807 803 800 795 791 787 784 780 776 772 767 762 758 754
Wind_Speed
19 18 17 18 20 21 20 20 19 19 19 20 22 23 23 24 24 24 23 22 20 20 20 19 18 20 22 22 24 25 26 27 27 26 27 28 30 30 30 33 33 32
21 20 20 22 21 20 21 21 20 20 20 21 22 23 23 24 25 25 24 23 23 23 21 18 17 19 20 19 21 23 25 26 27 27 27 29 29 29 30 33 35 33
23 23 23 23 22 21 22 22 22 21 22 22 23 24 24 24 25 25 24 24 24 23 22 20 19 20 20 19 19 20 23 25 26 25 25 26 26 27 31 33 34 34
23 24 24 24 23 24 24 23 23 23 23 23 24 23 23 24 24 24 24 24 24 23 22 22 22 21 20 19 19 20 22 24 24 25 25 26 26 26 28 30 32 32
23 24 24 25 25 26 26 25 24 23 23 24 24 24 23 23 24 24 24 25 25 23 22 23 24 23 20 19 20 20 22 23 24 25 26 28 28 26 26 27 28 29
23 24 25 25 26 27 26 26 26 24 24 24 24 24 24 24 24 24 25 25 25 25 25 25 25 24 21 21 21 22 22 22 23 24 26 28 29 27 25 25 25 25
25 25 26 27 27 27 27 27 27 25 24 25 25 24 25 25 25 25 26 25 24 25 26 26 27 25 22 21 21 22 22 22 24 25 26 27 28 28 26 26 25 24
26 26 27 27 27 28 28 29 29 26 25 26 27 26 26 27 28 28 27 27 25 25 26 29 31 29 26 24 23 23 22 22 23 25 27 27 27 28 27 27 27 26
26 26 26 27 28 28 28 30 29 26 26 27 28 28 28 29 31 30 29 29 28 27 29 34 35 33 31 30 28 27 25 23 21 22 25 27 27 27 28 28 28 28
26 26 26 27 27 28 27 29 29 27 26 27 28 28 29 31 31 32 32 33 32 29 31 37 39 37 37 35 33 32 29 26 24 22 23 25 26 28 28 26 27 27
27 28 28 28 27 27 27 27 27 27 26 27 28 28 29 31 31 32 32 31 34 32 29 36 40 39 40 40 37 35 32 29 28 25 24 23 24 27 27 25 26 27
27 28 29 29 28 27 27 26 26 26 25 25 27 27 28 30 31 31 30 28 33 34 29 33 38 38 41 43 40 38 35 31 29 27 26 25 23 24 25 25 25 27
26 26 26 27 28 27 27 27 26 26 25 25 25 26 27 30 30 30 30 30 32 33 29 30 37 40 44 46 43 41 38 34 30 28 27 27 25 23 23 23 24 25
23 24 25 26 26 26 27 28 28 27 27 26 26 25 25 28 28 28 30 32 32 31 29 29 34 41 46 47 46 44 41 36 32 29 27 27 27 25 22 22 23 24
24 24 26 26 26 27 27 27 27 28 28 28 27 27 26 26 26 26 29 32 32 31 30 29 34 40 44 45 45 44 41 36 32 29 26 25 26 26 23 21 22 23
26 26 26 25 25 27 27 27 26 26 27 28 28 28 28 27 27 27 27 30 32 31 29 29 35 42 45 46 46 44 40 35 31 29 26 24 23 23 23 21 21 21
25 26 27 26 25 25 26 27 27 25 25 26 28 29 28 28 29 28 27 28 31 31 28 28 35 43 46 48 49 47 41 35 32 30 28 25 23 21 22 21 21 21
24 25 27 28 27 25 25 26 27 27 25 25 27 29 28 28 29 28 27 28 29 31 30 29 34 42 47 48 50 49 44 37 33 32 29 27 25 23 23 23 22 22
27 26 28 30 31 28 26 26 26 27 26 24 25 27 27 27 29 28 28 28 29 31 31 30 34 41 45 47 49 50 46 39 35 32 30 28 27 26 26 25 24 24
29 28 28 31 32 31 29 29 28 28 27 24 23 26 28 28 28 29 29 29 29 30 31 30 34 40 44 45 48 50 46 40 36 34 32 32 30 28 28 28 26 25
27 27 27 29 32 32 31 31 31 30 29 26 23 25 28 28 27 28 29 30 30 31 31 31 34 39 42 43 46 48 45 40 37 35 34 36 35 31 29 30 29 28
24 23 24 28 31 33 32 32 32 31 31 29 25 24 27 30 28 28 29 30 30 31 32 32 35 39 42 42 43 45 44 40 37 34 32 35 36 34 32 32 31 31
22 21 22 27 30 32 33 32 32 32 32 31 29 26 27 30 29 28 29 29 29 30 32 32 35 39 42 43 43 44 42 39 39 36 31 32 34 34 34 34 32 31
23 21 21 25 30 31 31 31 31 31 31 30 30 29 27 27 28 28 29 29 29 29 30 32 34 38 41 43 43 44 41 38 37 36 33 32 33 34 35 35 33 32
22 22 21 24 29 30 28 28 28 28 29 28 28 28 27 25 26 27 28 28 28 29 30 31 33 37 40 41 42 44 42 39 37 35 33 33 33 33 35 36 36 36
22 22 21 22 26 29 27 25 25 25 26 27 27 26 26 25 25 27 28 27 27 28 30 31 33 36 39 40 40 42 43 41 39 35 32 31 32 32 33 36 37 38
Wind_Direction
30 29 33 32 25 18 12 9 7 5 3 359 357 355 353 352 351 351 352 350 344 334 320 308 301 298 295 291 287 283 280 276 273 273 273 268 260 255 251 247 245 238
34 35 35 29 24 24 22 18 14 11 7 3 0 357 355 354 352 349 349 349 349 349 342 326 313 312 309 301 294 291 287 284 281 279 278 275 270 264 259 254 249 241
36 35 31 27 26 28 25 21 20 19 14 9 5 2 360 358 355 351 350 347 344 346 349 345 337 332 327 318 308 300 296 293 290 287 283 278 275 272 267 261 253 247
34 32 30 30 31 30 27 24 23 22 19 15 10 6 4 1 358 355 353 352 348 345 344 345 343 339 333 324 313 304 300 297 293 289 285 280 276 270 266 266 264 257
35 33 32 34 33 31 29 28 25 22 21 18 14 11 7 3 1 357 354 355 356 351 347 345 342 337 330 324 318 311 306 303 299 293 286 283 280 275 271 271 266 258
35 34 35 35 33 31 31 32 28 26 24 21 18 14 11 8 4 360 358 358 359 0 360 355 350 344 335 327 323 319 312 309 306 298 288 284 282 279 276 270 263 258
36 36 36 35 33 32 34 34 30 28 26 24 21 17 14 11 7 6 4 3 5 8 8 5 4 4 358 349 340 331 322 316 312 303 292 286 287 284 278 268 262 262
37 37 36 35 34 34 36 35 31 29 28 26 24 21 17 14 13 12 9 10 13 13 9 6 7 9 8 4 357 347 338 329 321 311 299 291 291 289 281 271 267 267
39 37 36 36 35 35 35 34 32 31 30 28 26 23 20 19 19 18 16 16 18 17 10 7 6 6 5 4 0 355 349 341 332 320 308 298 293 291 285 278 273 268
40 37 36 36 36 35 34 32 31 32 32 29 28 26 23 22 22 22 22 21 20 18 13 10 11 9 5 3 0 357 352 345 338 328 317 306 297 294 290 284 277 269
40 37 36 35 34 33 31 31 30 31 32 30 28 27 24 23 22 21 22 21 19 19 13 10 14 12 7 4 0 356 352 345 339 332 324 316 306 301 296 289 281 274
41 40 39 36 34 32 30 29 28 28 30 29 28 27 24 22 22 21 21 18 16 18 13 9 12 12 7 5 1 356 352 345 339 332 326 321 312 306 302 292 283 278
44 44 42 40 37 35 32 29 28 27 27 26 25 27 26 23 23 23 22 18 15 16 14 8 9 8 7 5 2 357 352 345 340 334 327 323 316 310 305 297 286 280
46 47 45 43 41 38 35 32 30 29 28 26 24 24 24 23 23 23 21 19 17 17 15 10 8 7 6 4 2 358 353 346 341 335 329 324 318 314 307 298 291 284
46 46 42 42 42 40 36 33 32 31 30 29 26 25 24 22 23 22 20 19 18 17 15 13 10 6 4 3 2 358 353 349 344 338 332 325 321 320 313 303 298 292
47 44 40 41 43 40 38 34 32 31 31 31 29 27 27 25 23 22 21 19 17 15 14 13 11 6 3 3 4 2 358 354 351 346 339 332 326 322 318 310 303 298
48 45 43 42 41 40 39 37 34 33 32 32 30 29 28 27 24 23 22 20 18 16 15 13 10 7 5 5 6 7 5 2 359 355 350 344 335 323 318 316 310 304
43 44 45 42 37 35 35 35 36 35 33 32 32 30 29 27 24 22 21 20 18 17 16 13 10 8 8 7 7 8 8 7 5 2 357 350 341 332 327 324 320 314
39 42 46 42 36 33 31 29 31 32 32 32 33 32 31 29 24 21 20 19 17 15 14 11 9 9 10 9 7 8 10 10 8 5 0 354 350 347 343 337 332 327
43 47 47 42 38 35 33 30 27 27 27 29 33 34 33 29 23 21 21 19 17 14 12 11 9 10 13 12 9 9 11 11 9 8 6 3 0 357 354 350 348 345
50 52 49 44 41 38 36 33 29 26 25 26 34 38 34 28 24 23 22 20 18 15 13 12 11 11 15 15 12 11 12 11 10 9 7 7 6 3 0 359 359 358
54 55 53 49 44 40 38 35 31 29 27 28 32 36 32 28 26 23 21 19 18 17 15 14 13 13 16 17 15 13 13 12 11 9 7 7 8 7 4 4 4 2
53 55 59 55 48 43 41 37 34 33 32 31 30 29 28 28 27 24 21 19 17 16 15 14 13 14 16 17 17 16 15 13 12 11 9 7 7 8 7 7 8 6
56 57 63 59 50 46 44 41 39 38 36 35 32 29 27 27 25 23 21 19 18 16 14 13 12 13 16 17 18 18 17 15 13 13 11 8 7 9 9 9 9 9
59 60 67 62 52 49 48 44 44 43 40 39 37 34 32 30 25 21 19 19 18 16 15 14 12 12 16 18 18 18 18 17 16 13 11 10 9 8 10 11 12 13
62 63 70 65 54 52 51 48 46 45 43 41 38 35 33 30 25 21 18 17 16 15 15 15 12 12 15 18 19 19 18 18 17 14 9 9 10 9 10 11 12 14